Location: Riverside Cemetery
(38.3047°N, 99.7773°W)
Time: 19:16:03
(UTC+00:00)

CZ-4B R/B - Pass Details

Date: 19 September 2020
Orbit: 487 x 651 km, 97.9° (Epoch: 21 October)

Event Time Altitude Azimuth Distance (km) Brightness Sun altitude
Rises 11:21:04 0° 20° (NNE) 2,619 6.8 -13.2°
Reaches altitude 10° 11:23:17 10° 28° (NNE) 1,711 5.9 -12.8°
Maximum altitude 11:26:44 39° 99° (E) 745 4.1 -12.1°
Drops below altitude 10° 11:30:06 10° 170° (S) 1,667 5.3 -11.5°
Sets 11:32:14 0° 178° (S) 2,541 6.1 -11.1°
